• In Uzbekistan
  • List of Countries
  • For 7 days
  • Water Temperature
  • Satellite Maps
  • Weather Map
  • Weather Widgets
  • user-avatar
    Login

    Hourly Weather Annaba

    Today, 22 January, Sunday

    Time Temperature Precipitation Wind Pressure Humidity
    00:00 +5°C° 0 mm 6 mps 755 mmHg 67%
    01:00 +5°C° 0 mm 6 mps 755 mmHg 69%
    02:00 +4°C° 0 mm 6 mps 755 mmHg 70%
    03:00 +4°C° 0 mm 6 mps 755 mmHg 71%
    04:00 +4°C° 0 mm 6 mps 755 mmHg 72%
    05:00 +4°C° 0 mm 6 mps 755 mmHg 73%
    06:00 +4°C° 0 mm 6 mps 755 mmHg 74%
    07:00 +4°C° 0 mm 6 mps 756 mmHg 76%
    08:00 +5°C° 0 mm 6 mps 756 mmHg 72%
    09:00 +8°C° 0 mm 6 mps 756 mmHg 68%
    10:00 +10°C° 0 mm 5 mps 756 mmHg 65%
    11:00 +11°C° 0 mm 6 mps 755 mmHg 59%
    12:00 +14°C° 0 mm 6 mps 755 mmHg 54%
    13:00 +15°C° 0 mm 6 mps 755 mmHg 49%
    14:00 +15°C° 0 mm 6 mps 755 mmHg 50%
    15:00 +15°C° 0 mm 5 mps 755 mmHg 50%
    16:00 +15°C° 0 mm 4 mps 755 mmHg 51%
    17:00 +13°C° 0 mm 4 mps 755 mmHg 53%
    18:00 +10°C° 0 mm 5 mps 755 mmHg 55%
    19:00 +8°C° 0 mm 5 mps 755 mmHg 57%
    20:00 +8°C° 0 mm 5 mps 756 mmHg 58%
    21:00 +7°C° 0 mm 4 mps 756 mmHg 58%
    22:00 +7°C° 0 mm 4 mps 756 mmHg 59%
    23:00 +7°C° 0 mm 4 mps 756 mmHg 61%

    Tomorrow, 23 January, Monday

    Time Temperature Precipitation Wind Pressure Humidity
    00:00 +6°C° 0 mm 4 mps 756 mmHg 63%
    01:00 +6°C° 0 mm 4 mps 756 mmHg 65%
    02:00 +5°C° 0 mm 3 mps 756 mmHg 67%
    03:00 +5°C° 0 mm 3 mps 756 mmHg 69%
    04:00 +5°C° 0 mm 3 mps 755 mmHg 71%
    05:00 +5°C° 0 mm 3 mps 755 mmHg 71%
    06:00 +6°C° 0 mm 2 mps 756 mmHg 72%
    07:00 +6°C° 0 mm 2 mps 756 mmHg 72%
    08:00 +7°C° 0.1 mm 2 mps 756 mmHg 69%
    09:00 +9°C° 0.1 mm 2 mps 756 mmHg 66%
    10:00 +10°C° 0.1 mm 2 mps 756 mmHg 63%
    11:00 +12°C° 0.1 mm 2 mps 756 mmHg 60%
    12:00 +13°C° 0.1 mm 2 mps 756 mmHg 58%
    13:00 +14°C° 0.1 mm 1 mps 756 mmHg 56%
    14:00 +14°C° 0.1 mm 2 mps 755 mmHg 58%
    15:00 +14°C° 0.1 mm 2 mps 755 mmHg 59%
    16:00 +14°C° 0.1 mm 2 mps 755 mmHg 61%
    17:00 +12°C° 0.2 mm 2 mps 755 mmHg 69%
    18:00 +9°C° 0.2 mm 2 mps 756 mmHg 76%
    19:00 +7°C° 0.2 mm 2 mps 756 mmHg 84%
    20:00 +7°C° 0.5 mm 3 mps 756 mmHg 84%
    21:00 +7°C° 0.5 mm 3 mps 757 mmHg 85%
    22:00 +7°C° 0.5 mm 3 mps 757 mmHg 85%
    23:00 +6°C° 0.3 mm 4 mps 757 mmHg 85%

    Day after tomorrow, 24 January, Tuesday

    Time Temperature Precipitation Wind Pressure Humidity
    00:00 +6°C° 0.3 mm 4 mps 757 mmHg 84%
    01:00 +7°C° 0.3 mm 5 mps 757 mmHg 83%
    02:00 +6°C° 0.3 mm 4 mps 757 mmHg 84%
    03:00 +6°C° 0.3 mm 4 mps 757 mmHg 85%
    04:00 +6°C° 0.3 mm 4 mps 757 mmHg 85%
    05:00 +6°C° 0.2 mm 4 mps 757 mmHg 86%
    06:00 +6°C° 0.2 mm 4 mps 757 mmHg 88%
    07:00 +6°C° 0.2 mm 4 mps 757 mmHg 89%
    08:00 +7°C° 0.6 mm 5 mps 758 mmHg 87%
    09:00 +8°C° 0.6 mm 5 mps 758 mmHg 84%
    10:00 +9°C° 0.6 mm 6 mps 758 mmHg 81%
    11:00 +9°C° 2.2 mm 6 mps 758 mmHg 82%
    12:00 +9°C° 2.2 mm 7 mps 757 mmHg 83%
    13:00 +10°C° 2.2 mm 7 mps 757 mmHg 84%
    14:00 +9°C° 2.9 mm 7 mps 757 mmHg 88%
    15:00 +9°C° 2.9 mm 7 mps 757 mmHg 91%
    16:00 +9°C° 2.9 mm 7 mps 757 mmHg 94%
    17:00 +9°C° 3.6 mm 8 mps 758 mmHg 93%
    18:00 +9°C° 3.6 mm 8 mps 758 mmHg 92%
    19:00 +8°C° 3.6 mm 9 mps 758 mmHg 92%
    20:00 +8°C° 3.3 mm 9 mps 759 mmHg 91%
    21:00 +7°C° 3.3 mm 8 mps 759 mmHg 91%
    22:00 +7°C° 3.3 mm 8 mps 760 mmHg 90%
    23:00 +8°C° 2.5 mm 7 mps 760 mmHg 91%

    25 January, Wednesday

    Time Temperature Precipitation Wind Pressure Humidity
    00:00 +8°C° 2.5 mm 7 mps 760 mmHg 92%
    01:00 +8°C° 2.5 mm 6 mps 760 mmHg 92%
    02:00 +8°C° 1.5 mm 6 mps 760 mmHg 93%
    03:00 +9°C° 1.5 mm 5 mps 761 mmHg 93%
    04:00 +9°C° 1.5 mm 5 mps 761 mmHg 94%
    05:00 +9°C° 1.5 mm 5 mps 761 mmHg 94%
    06:00 +9°C° 1.5 mm 5 mps 761 mmHg 93%
    07:00 +9°C° 1.5 mm 5 mps 762 mmHg 93%
    08:00 +10°C° 1.2 mm 5 mps 762 mmHg 92%
    09:00 +10°C° 1.2 mm 5 mps 763 mmHg 91%
    10:00 +10°C° 1.2 mm 5 mps 763 mmHg 90%
    11:00 +10°C° 0.7 mm 5 mps 763 mmHg 88%
    12:00 +12°C° 0.7 mm 5 mps 763 mmHg 85%
    13:00 +11°C° 0.7 mm 6 mps 763 mmHg 82%
    14:00 +13°C° 0.3 mm 6 mps 763 mmHg 81%
    15:00 +13°C° 0.3 mm 6 mps 763 mmHg 79%
    16:00 +13°C° 0.3 mm 6 mps 763 mmHg 78%
    17:00 +12°C° 0.2 mm 5 mps 764 mmHg 81%
    18:00 +9°C° 0.2 mm 5 mps 764 mmHg 84%
    19:00 +8°C° 0.2 mm 4 mps 765 mmHg 87%
    20:00 +8°C° 0.1 mm 4 mps 765 mmHg 87%
    21:00 +7°C° 0.1 mm 4 mps 765 mmHg 86%
    22:00 +8°C° 0.1 mm 3 mps 766 mmHg 86%
    23:00 +8°C° 0 mm 3 mps 766 mmHg 86%

    26 January, Thursday

    Time Temperature Precipitation Wind Pressure Humidity
    00:00 +7°C° 0 mm 3 mps 766 mmHg 86%
    01:00 +7°C° 0 mm 3 mps 766 mmHg 86%
    02:00 +7°C° 0 mm 3 mps 766 mmHg 85%
    03:00 +7°C° 0 mm 3 mps 766 mmHg 84%
    04:00 +6°C° 0 mm 2 mps 766 mmHg 84%
    05:00 +6°C° 0 mm 2 mps 766 mmHg 83%
    06:00 +6°C° 0 mm 2 mps 766 mmHg 83%
    07:00 +6°C° 0 mm 2 mps 766 mmHg 82%
    08:00 +8°C° 0 mm 2 mps 766 mmHg 78%
    09:00 +10°C° 0 mm 2 mps 767 mmHg 73%
    10:00 +13°C° 0 mm 2 mps 767 mmHg 69%
    11:00 +14°C° 0 mm 2 mps 767 mmHg 64%
    12:00 +15°C° 0 mm 2 mps 766 mmHg 59%
    13:00 +17°C° 0 mm 2 mps 766 mmHg 55%
    14:00 +17°C° 0 mm 2 mps 766 mmHg 55%
    15:00 +17°C° 0 mm 2 mps 766 mmHg 55%
    16:00 +17°C° 0 mm 2 mps 766 mmHg 56%
    17:00 +15°C° 0 mm 2 mps 766 mmHg 65%
    18:00 +11°C° 0 mm 3 mps 766 mmHg 74%
    19:00 +9°C° 0 mm 3 mps 767 mmHg 82%
    20:00 +9°C° 0 mm 3 mps 767 mmHg 82%
    21:00 +8°C° 0 mm 2 mps 767 mmHg 82%
    22:00 +8°C° 0 mm 2 mps 768 mmHg 82%
    23:00 +8°C° 0 mm 2 mps 768 mmHg 81%

    27 January, Friday

    Time Temperature Precipitation Wind Pressure Humidity
    00:00 +8°C° 0 mm 2 mps 768 mmHg 80%
    01:00 +8°C° 0 mm 2 mps 768 mmHg 79%
    02:00 +8°C° 0 mm 2 mps 768 mmHg 77%
    03:00 +7°C° 0 mm 2 mps 767 mmHg 75%
    04:00 +7°C° 0 mm 2 mps 767 mmHg 74%
    05:00 +7°C° 0 mm 2 mps 768 mmHg 73%
    06:00 +7°C° 0 mm 2 mps 768 mmHg 72%
    07:00 +7°C° 0 mm 2 mps 768 mmHg 72%
    08:00 +9°C° 0 mm 2 mps 768 mmHg 68%
    09:00 +10°C° 0 mm 2 mps 768 mmHg 65%
    10:00 +13°C° 0 mm 2 mps 769 mmHg 61%
    11:00 +14°C° 0 mm 2 mps 768 mmHg 57%
    12:00 +16°C° 0 mm 1 mps 768 mmHg 52%
    13:00 +18°C° 0 mm 1 mps 768 mmHg 47%
    14:00 +18°C° 0 mm 1 mps 767 mmHg 49%
    15:00 +17°C° 0 mm 2 mps 767 mmHg 50%
    16:00 +17°C° 0 mm 2 mps 767 mmHg 51%
    17:00 +15°C° 0 mm 2 mps 767 mmHg 60%
    18:00 +11°C° 0 mm 3 mps 767 mmHg 69%
    19:00 +9°C° 0 mm 3 mps 767 mmHg 78%
    20:00 +9°C° 0 mm 3 mps 768 mmHg 76%
    21:00 +9°C° 0 mm 3 mps 768 mmHg 73%
    22:00 +8°C° 0 mm 3 mps 768 mmHg 70%
    23:00 +8°C° 0 mm 2 mps 768 mmHg 67%
    Show more